Starlink 11553

operational
NORAD ID: 63006 Int'l Des: 2025-032 Owner: SPXS Country: US Constellation: starlink
LEOCIRCULAR

Starlink 11553について

説明を読み込み中...

リアルタイム位置

3D地球を読み込み中...

次回通過

高度履歴

Altitude vs Time

uPlot chart will show altitude changes over time

軌道要素

1 63006U 25032B 25308.83874199 .00229622 00000-0 17433-2 0 9997
2 63006 43.0004 228.2903 0003800 294.8600 65.1872 15.70845149 42575
Epoch: Nov 4, 2025 • Age: 6 hours

現在のステータス

高度 365.3 km
速度 7.69 km/s
衛星直下点 -39.22°S, 92.56°E
打ち上げ日 Feb 15, 2025
運用期間 0.7 years
タイプ internet

技術仕様

分類 Payload
質量 960.00 kg
乾燥質量 910.00 kg
総質量 960.00 kg
長さ 0.30 m
直径 4.10 m
スパン 29.00 m
形状 Box + pan
製造者 SPXS
バスタイプ Starlink V2MD
フェーズステータス In Orbit
所有者/国 SPXS/US

大規模コンステレーション

Loading constellations...